Home > Weather > Lexington > Past weeks

Flag for USA Past Weather in Lexington, Virginia, USA — Yesterday and Last 2 Weeks

Now
53 °F

Clear.


Feels Like: 50 °F
Forecast: 51 / 79 °F
Wind: 8 mph from Northwest

Location: Hot Springs / Ingalls

Current Time: May 24, 2016 at 4:05:24 AM

Latest Report: May 24, 2016 at 3:35 AM


Visibility: 10 mi

Pressure: 30.08 "Hg

Humidity: 81%

Dew Point: 47 °F

Location of LexingtonLocation

Past Weather in Lexington — Graph

°F

Lexington Temperature Yesterday

Maximum temperature yesterday: 60 °F (at 3:55 PM)
Minimum temperature yesterday: 46 °F (at 3:35 AM)
Average temperature yesterday: 52 °F

High & Low Weather Summary for the Past Weeks

 TemperatureHumidityPressure
High73 °F (May 12, 3:15 PM)100% (May 10, 3:15 AM)30.29 "Hg (May 10, 3:15 AM)
Low32 °F (May 15, 8:55 AM)29% (May 16, 2:15 PM)29.77 "Hg (May 14, 4:15 PM)
Average52 °F84%30.08 "Hg
* Reported May 9 3:15 AM — May 24 3:15 AM, Lexington, Weather by CustomWeather, © 2016

Note: Actual official high and low records may vary slightly from our data, if they occured in-between our weather recording intervals... More about our weather records

Advertising

Lexington Weather History for the Previous 24 Hours

Scroll right to see more
 ConditionsComfort  
Time TempWeatherWind HumidityBarometerVisibility
3:15 AM
Tue, May 24
53 °FClear.8 mph80%30.08 "Hg10 mi
2:55 AM53 °FClear.8 mph78%30.08 "Hg10 mi
2:15 AM53 °FClear.9 mph75%30.08 "Hg10 mi
1:55 AM52 °FClear.9 mph75%30.09 "Hg10 mi
1:15 AM53 °FClear.10 mph74%30.09 "Hg10 mi
12:55 AM53 °FClear.9 mph74%30.09 "Hg10 mi
12:35 AM52 °FClear.8 mph77%30.09 "Hg10 mi
12:15 AM53 °FClear.9 mph78%30.09 "Hg10 mi
11:55 PM
Mon, May 23
52 °FClear.9 mph88%30.09 "Hg10 mi
11:35 PM53 °FClear.8 mph83%30.09 "Hg10 mi
11:15 PM53 °FClear.7 mph86%30.09 "Hg10 mi
10:55 PM53 °FPassing clouds.7 mph86%30.09 "Hg10 mi
10:35 PM54 °FPassing clouds.7 mph85%30.08 "Hg10 mi
10:15 PM53 °FClear.7 mph84%30.08 "Hg10 mi
9:55 PM54 °FPassing clouds.6 mph84%30.08 "Hg10 mi
9:35 PM55 °FPassing clouds.7 mph81%30.07 "Hg10 mi
9:15 PM55 °FPartly sunny.7 mph82%30.06 "Hg10 mi
8:55 PM54 °FScattered clouds.6 mph84%30.06 "Hg10 mi
8:35 PM55 °FBroken clouds.8 mph83%30.05 "Hg10 mi
8:15 PM56 °FPartly sunny.5 mph82%30.05 "Hg10 mi
7:55 PM57 °FBroken clouds.8 mph78%30.04 "Hg10 mi
7:35 PM58 °FBroken clouds.8 mph76%30.04 "Hg10 mi
7:15 PM58 °FMore clouds than sun.5 mph78%30.04 "Hg10 mi
6:55 PM58 °FCloudy.7 mph73%30.04 "Hg10 mi
6:35 PM60 °FScattered clouds.5 mph71%30.03 "Hg10 mi
6:15 PM59 °FPartly sunny.6 mph74%30.03 "Hg10 mi
5:55 PM56 °FMore clouds than sun.7 mph84%30.03 "Hg10 mi
5:35 PM58 °FDrizzle. Mostly cloudy.3 mph73%30.03 "Hg10 mi
5:15 PM60 °FBroken clouds.3 mph67%30.02 "Hg10 mi
4:55 PM59 °FScattered clouds.3 mph68%30.02 "Hg10 mi
4:35 PM57 °FBroken clouds.6 mph78%30.02 "Hg10 mi
4:15 PM57 °FHeavy rain. Cloudy.8 mph75%30.03 "Hg5 mi
3:55 PM60 °FScattered clouds.5 mph63%30.02 "Hg10 mi
3:35 PM60 °FScattered clouds.8 mph65%30.03 "Hg10 mi
3:15 PM60 °FPartly sunny.5 mph63%30.03 "Hg10 mi
2:55 PM58 °FPartly sunny.5 mph69%30.04 "Hg10 mi
2:15 PM55 °FRain. Mostly cloudy.3 mph83%30.04 "Hg10 mi
1:55 PM56 °FCloudy.3 mph74%30.05 "Hg10 mi
1:35 PM54 °FDrizzle. Cloudy.3 mph79%30.05 "Hg5 mi
1:15 PM54 °FCloudy.3 mph81%30.05 "Hg10 mi
12:55 PM55 °FMostly cloudy.6 mph81%30.05 "Hg10 mi
12:15 PM55 °FCloudy.5 mph81%30.06 "Hg10 mi
11:55 AM54 °FMostly cloudy.No wind80%30.06 "Hg7 mi
11:35 AM54 °FCloudy.No wind79%30.06 "Hg10 mi
11:15 AM55 °FMostly cloudy.3 mph80%30.05 "Hg10 mi
10:55 AM54 °FMostly cloudy.6 mph84%30.05 "Hg10 mi
10:15 AM53 °FCloudy.6 mph90%30.03 "Hg10 mi
9:55 AM51 °FLow clouds.7 mph100%30.03 "Hg10 mi
9:15 AM50 °FMostly cloudy.7 mph100%30.01 "Hg10 mi
8:55 AM50 °FCloudy.9 mph97%30.01 "Hg10 mi
8:35 AM48 °FMostly cloudy.9 mph100%30.01 "Hg10 mi
8:15 AM49 °FCloudy.9 mph100%30.00 "Hg10 mi
7:55 AM49 °FMostly cloudy.10 mph99%30.00 "Hg10 mi
7:35 AM47 °FMore clouds than sun.10 mph100%29.99 "Hg10 mi
7:15 AM47 °FMore clouds than sun.8 mph100%29.99 "Hg7 mi
6:55 AM47 °FMostly cloudy.10 mph100%29.98 "Hg7 mi
6:35 AM47 °FFog.14 mph100%29.98 "Hg3 mi
6:15 AM47 °FLow clouds.13 mph100%29.97 "Hg10 mi
5:55 AM46 °FMostly cloudy.12 mph100%29.96 "Hg10 mi
5:35 AM46 °FMostly cloudy.13 mph100%29.95 "Hg10 mi
5:15 AM46 °FMostly cloudy.12 mph100%29.94 "Hg10 mi
4:55 AM46 °FMostly cloudy.12 mph100%29.95 "Hg10 mi
4:35 AM46 °FDrizzle. Mostly cloudy.8 mph100%29.94 "Hg10 mi
4:15 AM46 °FLight rain. Mostly cloudy.8 mph100%29.94 "Hg1 mi
Weather by CustomWeather, © 2016

See weather overviewHow to use our weather pages